K4OZS-11 Weather Reports


time (UTC)temp
C
wind
direction
speed
KPH
gust
KPH
rain 1hr
cm
rain 24hr
cm
rain mn
cm
humidity
%
barometer
mb
20260510171920 32 214 8.0 20.9 288.49 0.00 0.00 47 1016.3
20260510171419 32 221 4.8 22.5 288.49 0.00 0.00 52 1016.4
20260510170919 32 190 8.0 25.7 288.49 0.00 0.00 50 1016.4
20260510170419 31 260 6.4 14.5 288.49 0.00 0.00 53 1016.4
20260510165919 31 218 3.2 8.0 288.49 0.00 0.00 56 1016.5
20260510165419 31 214 4.8 17.7 288.49 0.00 0.00 54 1016.5
20260510164919 31 191 4.8 14.5 288.49 0.00 0.00 53 1016.5
20260510164419 31 229 3.2 8.0 288.49 0.00 0.00 55 1016.6
20260510163919 31 203 6.4 14.5 288.49 0.00 0.00 55 1016.6
20260510163419 31 207 3.2 8.0 288.49 0.00 0.00 58 1016.6
20260510162919 30 141 1.6 6.4 288.49 0.00 0.00 61 1016.7
20260510162419 30 242 1.6 3.2 288.49 0.00 0.00 61 1016.8
20260510161919 30 198 3.2 8.0 288.49 0.00 0.00 61 1016.9
20260510161419 30 232 1.6 9.7 288.49 0.00 0.00 62 1016.9
20260510160919 30 20 1.6 4.8 288.49 0.00 0.00 62 1017.0
20260510160419 30 284 0.0 4.8 288.49 0.00 0.00 62 1016.9
20260510155919 30 233 3.2 9.7 288.49 0.00 0.00 61 1016.9
20260510155420 29 249 1.6 6.4 288.49 0.00 0.00 64 1017.0
20260510154919 30 231 1.6 6.4 288.49 0.00 0.00 63 1017.0
20260510154419 30 215 3.2 8.0 288.49 0.00 0.00 61 1017.0
20260510153919 30 163 1.6 9.7 288.49 0.00 0.00 62 1016.9
20260510153419 30 194 1.6 6.4 288.49 0.00 0.00 62 1016.8
20260510152919 30 252 1.6 4.8 288.49 0.00 0.00 62 1017.0
20260510152419 30 207 1.6 6.4 288.49 0.00 0.00 62 1017.0
20260510151919 30 222 3.2 9.7 288.49 0.00 0.00 62 1016.9
20260510151419 30 232 4.8 11.3 288.49 0.00 0.00 63 1016.9
20260510150919 30 255 3.2 9.7 288.49 0.00 0.00 64 1016.9
20260510150419 29 242 3.2 6.4 288.49 0.00 0.00 65 1017.0
20260510145919 29 193 6.4 14.5 288.49 0.00 0.00 65 1016.9
20260510145419 29 193 4.8 11.3 288.49 0.00 0.00 65 1016.9
20260510144919 29 232 1.6 6.4 288.49 0.00 0.00 66 1016.9
20260510144419 29 210 4.8 11.3 288.49 0.00 0.00 66 1017.0
20260510143919 29 197 6.4 12.9 288.49 0.00 0.00 68 1016.9
20260510143419 29 233 1.6 9.7 288.49 0.00 0.00 68 1016.9
20260510142919 28 201 3.2 9.7 288.49 0.00 0.00 68 1016.9
20260510142419 28 198 3.2 9.7 288.49 0.00 0.00 70 1016.8
20260510141919 28 215 4.8 16.1 288.49 0.00 0.00 71 1016.8
20260510141419 28 208 8.0 16.1 288.49 0.00 0.00 70 1016.8
20260510140919 28 191 4.8 11.3 288.49 0.00 0.00 70 1016.8
20260510140419 28 204 9.7 16.1 288.49 0.00 0.00 72 1016.7
20260510135919 27 217 9.7 17.7 288.49 0.00 0.00 73 1016.8
20260510135419 27 210 9.7 19.3 288.49 0.00 0.00 73 1016.8
20260510134919 27 150 6.4 16.1 288.49 0.00 0.00 75 1016.8
20260510134420 27 195 6.4 12.9 288.49 0.00 0.00 76 1016.8
20260510133419 27 177 4.8 11.3 288.49 0.00 0.00 77 1016.8
20260510132920 26 214 6.4 16.1 288.49 0.00 0.00 78 1016.8
20260510132420 26 217 9.7 16.1 288.49 0.00 0.00 79 1016.6
20260510131921 26 222 8.0 16.1 288.49 0.00 0.00 81 1016.5
20260510131421 26 200 4.8 8.0 288.49 0.00 0.00 83 1016.5
20260510131059 26 152 4.8 9.7 288.49 0.00 0.00 84 1016.6
20260510130921 26 152 4.8 9.7 288.49 0.00 0.00 84 1016.6
20260510130650 25 184 3.2 8.0 288.49 0.00 0.00 86 1016.5
20260510130419 25 184 3.2 8.0 288.49 0.00 0.00 86 1016.5
20260510125919 25 207 4.8 9.7 288.49 0.00 0.00 87 1016.7
20260510125419 25 210 6.4 12.9 288.49 0.00 0.00 89 1016.7
20260510124919 25 215 6.4 11.3 288.49 0.00 0.00 90 1016.8
20260510124419 24 186 1.6 8.0 288.49 0.00 0.00 92 1016.8
20260510123920 24 200 4.8 8.0 288.49 0.00 0.00 93 1016.7
20260510123619 23 173 1.6 6.4 288.49 0.00 0.00 94 1016.5
20260510123419 23 173 1.6 6.4 288.49 0.00 0.00 94 1016.5
20260510122619 23 198 4.8 11.3 288.49 0.00 0.00 96 1016.3
20260510122418 23 198 4.8 11.3 288.49 0.00 0.00 96 1016.3
20260510121920 23 176 3.2 8.0 288.49 0.00 0.00 96 1016.3
20260510121419 22 184 3.2 8.0 288.49 0.00 0.00 97 1016.3
20260510120752 22 155 1.6 8.0 288.49 0.00 0.00 97 1016.1
20260510120420 22 155 1.6 8.0 288.49 0.00 0.00 97 1016.1
20260510115918 22 203 1.6 6.4 288.49 0.00 0.00 97 1016.0
20260510115420 22 240 1.6 6.4 288.49 0.00 0.00 97 1015.9
20260510114920 22 155 0.0 1.6 288.49 0.00 0.00 98 1015.8
20260510114420 22 195 1.6 4.8 288.49 0.00 0.00 98 1015.7
20260510112919 21 0 0.0 0.0 288.49 0.00 0.00 97 1015.5
20260510112420 21 0 0.0 0.0 288.49 0.00 0.00 97 1015.5
20260510111919 21 0 0.0 0.0 288.49 0.00 0.00 97 1015.4
20260510111420 21 0 0.0 0.0 288.49 0.00 0.00 97 1015.4
20260510110031 21 0 0.0 0.0 288.49 0.00 0.00 97 1015.1
20260510105919 21 0 0.0 0.0 288.49 0.00 0.00 97 1015.1
20260510105420 21 0 0.0 0.0 288.49 0.00 0.00 97 1015.1
20260510104419 21 0 0.0 0.0 288.49 0.00 0.00 97 1014.9
20260510103920 21 0 0.0 0.0 288.49 0.00 0.00 97 1014.9
20260510103421 21 0 0.0 0.0 288.49 0.00 0.00 97 1014.8
20260510102919 22 0 0.0 0.0 288.49 0.00 0.00 97 1014.7
20260510102546 22 0 0.0 0.0 288.49 0.00 0.00 96 1014.7
20260510102419 22 0 0.0 0.0 288.49 0.00 0.00 96 1014.7
20260510102047 22 0 0.0 0.0 288.49 0.00 0.00 96 1014.6
20260510101920 22 0 0.0 0.0 288.49 0.00 0.00 96 1014.6
20260510100920 22 0 0.0 0.0 288.49 0.00 0.00 96 1014.5
20260510095420 22 0 0.0 0.0 288.49 0.00 0.00 96 1014.3
20260510094419 22 0 0.0 0.0 288.49 0.00 0.00 96 1014.3
20260510093919 22 0 0.0 0.0 288.49 0.00 0.00 96 1014.3
20260510092919 22 167 1.6 3.2 288.49 0.00 0.00 96 1014.1
20260510092421 22 183 1.6 3.2 288.49 0.00 0.00 96 1014.1
20260510091420 22 177 1.6 6.4 288.49 0.00 0.00 95 1014.0
20260510090922 22 187 1.6 3.2 288.49 0.00 0.00 95 1014.0
20260510090420 22 153 0.0 1.6 288.49 0.00 0.00 95 1013.9
20260510085921 22 0 0.0 0.0 288.49 0.00 0.00 95 1013.9
20260510084420 23 191 0.0 3.2 288.49 0.00 0.00 95 1013.7
20260510084322 23 174 3.2 6.4 288.49 0.00 0.00 94 1013.6
20260510083920 23 174 3.2 6.4 288.49 0.00 0.00 94 1013.6
20260510083419 23 176 0.0 4.8 288.49 0.00 0.00 94 1013.5
20260510081921 23 204 1.6 4.8 288.49 0.00 0.00 94 1013.4
20260510080920 23 173 3.2 4.8 288.49 0.00 0.00 94 1013.5
20260510075920 23 190 1.6 8.0 288.49 0.00 0.00 94 1013.6
20260510075821 23 211 0.0 3.2 288.49 0.00 0.00 94 1013.6
20260510075620 23 211 0.0 3.2 288.49 0.00 0.00 94 1013.6
20260510075513 23 211 0.0 3.2 288.49 0.00 0.00 94 1013.6
20260510075421 23 211 0.0 3.2 288.49 0.00 0.00 94 1013.6
20260510075050 23 236 0.0 1.6 288.49 0.00 0.00 93 1013.5
20260510074919 23 236 0.0 1.6 288.49 0.00 0.00 93 1013.5
20260510074224 23 174 1.6 6.4 288.49 0.00 0.00 93 1013.5
20260510074037 23 174 1.6 6.4 288.49 0.00 0.00 93 1013.5
20260510073920 23 174 1.6 6.4 288.49 0.00 0.00 93 1013.5
20260510073420 23 205 1.6 6.4 288.49 0.00 0.00 94 1013.5
20260510073115 23 205 3.2 6.4 288.49 0.00 0.00 94 1013.5
20260510072921 23 205 3.2 6.4 288.49 0.00 0.00 94 1013.5
20260510072421 23 191 3.2 8.0 288.49 0.00 0.00 94 1013.4
20260510071921 23 183 3.2 8.0 288.49 0.00 0.00 93 1013.4
20260510071420 23 207 4.8 12.9 288.49 0.00 0.00 93 1013.4
20260510070920 23 187 3.2 12.9 288.49 0.00 0.00 93 1013.5
20260510070046 23 190 4.8 11.3 288.49 0.00 0.00 93 1013.7
20260510065920 23 190 4.8 11.3 288.49 0.00 0.00 93 1013.7
20260510065735 23 198 3.2 6.4 288.49 0.00 0.00 93 1013.6
20260510065422 23 198 3.2 6.4 288.49 0.00 0.00 93 1013.6
20260510065024 23 152 4.8 9.7 288.49 0.00 0.00 93 1013.6
20260510064919 23 152 4.8 9.7 288.49 0.00 0.00 93 1013.6
20260510064420 23 184 4.8 11.3 288.49 0.00 0.00 93 1013.7
20260510063920 23 198 3.2 11.3 288.49 0.00 0.00 93 1013.8
20260510063420 23 191 4.8 12.9 288.49 0.00 0.00 93 1013.9
20260510062920 23 212 3.2 12.9 288.49 0.00 0.00 92 1014.0
20260510062421 23 198 3.2 8.0 288.49 0.00 0.00 92 1014.0
20260510061920 23 195 1.6 6.4 288.49 0.00 0.00 92 1014.1
20260510061421 22 226 3.2 8.0 288.49 0.00 0.00 92 1014.3
20260510060920 22 195 3.2 6.4 288.49 0.00 0.00 92 1014.4
20260510060840 22 174 1.6 3.2 288.49 0.00 0.00 91 1014.4
20260510060419 22 174 1.6 3.2 288.49 0.00 0.00 91 1014.4
20260510055920 22 176 1.6 4.8 288.49 0.00 0.00 91 1014.5
20260510055420 22 181 0.0 3.2 288.49 0.00 0.00 91 1014.6
20260510055133 22 184 0.0 3.2 288.49 0.00 0.00 90 1014.7
20260510054920 22 184 0.0 3.2 288.49 0.00 0.00 90 1014.7
20260510054420 22 172 0.0 3.2 288.49 0.00 0.00 90 1014.7
20260510053925 22 188 1.6 3.2 288.49 0.00 0.00 91 1014.7
20260510053903 22 129 0.0 1.6 288.49 0.00 0.00 90 1015.1
20260510053901 22 0 0.0 0.0 288.49 0.00 0.00 90 1015.2
20260510053840 22 170 0.0 1.6 288.49 0.00 0.00 91 1015.0
20260510053808 22 129 0.0 1.6 288.49 0.00 0.00 90 1015.1
20260510053806 22 0 0.0 0.0 288.49 0.00 0.00 90 1015.2
20260510053746 22 170 0.0 1.6 288.49 0.00 0.00 91 1015.0
20260510053714 22 129 0.0 1.6 288.49 0.00 0.00 90 1015.1
20260510053712 22 0 0.0 0.0 288.49 0.00 0.00 90 1015.2
20260510053651 22 170 0.0 1.6 288.49 0.00 0.00 91 1015.0
20260510053619 22 129 0.0 1.6 288.49 0.00 0.00 90 1015.1
20260510053617 22 0 0.0 0.0 288.49 0.00 0.00 90 1015.2
20260510053556 22 170 0.0 1.6 288.49 0.00 0.00 91 1015.0
20260510053525 22 129 0.0 1.6 288.49 0.00 0.00 90 1015.1
20260510053522 22 0 0.0 0.0 288.49 0.00 0.00 90 1015.2
20260510053502 22 170 0.0 1.6 288.49 0.00 0.00 91 1015.0
20260510053430 22 129 0.0 1.6 288.49 0.00 0.00 90 1015.1
20260510053428 22 0 0.0 0.0 288.49 0.00 0.00 90 1015.2
20260510053420 22 179 0.0 3.2 288.49 0.00 0.00 91 1014.8
20260510053340 22 170 0.0 1.6 288.49 0.00 0.00 91 1015.0
20260510053335 22 129 0.0 1.6 288.49 0.00 0.00 90 1015.1
20260510053333 22 0 0.0 0.0 288.49 0.00 0.00 90 1015.2
20260510052921 22 170 0.0 1.6 288.49 0.00 0.00 91 1015.0
20260510052420 22 129 0.0 1.6 288.49 0.00 0.00 90 1015.1
20260510052013 22 0 0.0 0.0 288.49 0.00 0.00 90 1015.2
20260510051921 22 0 0.0 0.0 288.49 0.00 0.00 90 1015.2
20260510051421 22 0 0.0 0.0 288.49 0.00 0.00 90 1015.1
20260510050920 22 0 0.0 0.0 288.49 0.00 0.00 90 1015.2
20260510050420 22 0 0.0 0.0 288.49 0.00 0.00 90 1015.2
20260510045920 22 212 0.0 3.2 288.49 0.00 0.00 90 1015.3
20260510045421 22 0 0.0 0.0 288.49 0.00 0.00 89 1015.3
20260510044920 22 0 0.0 0.0 288.49 0.00 0.00 89 1015.4
20260510044421 22 0 0.0 0.0 288.49 0.00 0.00 88 1015.4
20260510043920 23 0 0.0 0.0 288.49 0.00 0.00 88 1015.5
20260510043420 23 0 0.0 0.0 288.49 0.00 0.00 87 1015.7
20260510042420 23 0 0.0 0.0 288.49 0.00 0.00 87 1015.7
20260510041920 23 0 0.0 0.0 288.49 0.00 0.00 87 1015.7
20260510041420 23 0 0.0 0.0 288.49 0.00 0.00 86 1015.7
20260510040920 23 0 0.0 0.0 288.49 0.00 0.00 86 1015.7
20260510040420 23 0 0.0 0.0 288.49 0.00 0.00 86 1015.8
20260510035920 23 0 0.0 0.0 288.49 0.00 0.00 85 1015.7
20260510035420 23 0 0.0 0.0 288.49 0.00 0.00 85 1015.7
20260510034920 23 0 0.0 0.0 288.49 0.00 0.00 85 1015.7
20260510033923 23 0 0.0 0.0 288.49 0.00 0.00 85 1015.8
20260510033420 23 149 0.0 1.6 288.49 0.00 0.00 85 1015.7
20260510032920 23 0 0.0 0.0 288.49 0.00 0.00 85 1015.7
20260510032420 23 0 0.0 0.0 288.49 0.00 0.00 85 1015.7
20260510031920 23 0 0.0 0.0 288.49 0.00 0.00 85 1015.6
20260510031420 23 0 0.0 0.0 288.49 0.00 0.00 85 1015.6
20260510030920 23 0 0.0 0.0 288.49 0.00 0.00 85 1015.6
20260510030420 23 0 0.0 0.0 288.49 0.00 0.00 85 1015.6
20260510025921 23 0 0.0 0.0 288.49 0.00 0.00 85 1015.5
20260510025420 23 0 0.0 0.0 288.49 0.00 0.00 85 1015.5
20260510024920 23 0 0.0 0.0 288.49 0.00 0.00 85 1015.5
20260510024420 23 0 0.0 0.0 288.49 0.00 0.00 85 1015.5
20260510023920 23 181 0.0 0.0 288.49 0.00 0.00 85 1015.3
20260510023420 23 229 0.0 1.6 288.49 0.00 0.00 85 1015.3
20260510022420 23 0 0.0 0.0 288.49 0.00 0.00 84 1015.1
20260510021920 23 0 0.0 0.0 288.49 0.00 0.00 84 1015.1
20260510020420 23 0 0.0 0.0 288.49 0.00 0.00 83 1014.8
20260510015920 23 0 0.0 0.0 288.49 0.00 0.00 83 1014.8
20260510015420 23 0 0.0 0.0 288.49 0.00 0.00 83 1014.8
20260510014920 23 0 0.0 0.0 288.49 0.00 0.00 83 1014.7
20260510014420 23 174 0.0 0.0 288.49 0.00 0.00 83 1014.7
20260510013920 23 0 0.0 0.0 288.49 0.00 0.00 83 1014.7
20260510013421 23 181 0.0 3.2 288.49 0.00 0.00 83 1014.7
20260510012920 23 4 0.0 3.2 288.49 0.00 0.00 83 1014.7
20260510012420 23 0 0.0 0.0 288.49 0.00 0.00 82 1014.5
20260510011920 23 0 0.0 0.0 288.49 0.00 0.00 82 1014.5
20260510011420 23 0 0.0 0.0 288.49 0.00 0.00 81 1014.6
20260510010920 23 0 0.0 0.0 288.49 0.00 0.00 81 1014.6
20260510010420 23 0 0.0 0.0 288.49 0.00 0.00 81 1014.5
20260510005920 23 34 3.2 8.0 288.49 0.00 0.00 81 1014.2
20260510005420 23 30 1.6 9.7 288.49 0.00 0.00 80 1014.1
20260510004921 23 336 0.0 3.2 288.49 0.00 0.00 80 1014.2
20260510004420 23 339 3.2 9.7 288.49 0.00 0.00 80 1014.2
20260510003920 23 308 3.2 11.3 288.49 0.00 0.00 80 1013.9
20260510003421 24 333 3.2 8.0 288.49 0.00 0.00 79 1013.8
20260510002920 24 333 3.2 8.0 288.49 0.00 0.00 79 1013.8
20260510002420 24 25 3.2 6.4 288.49 0.00 0.00 79 1013.8
20260510001920 24 339 6.4 12.9 288.49 0.00 0.00 79 1013.9
20260510001420 24 17 4.8 8.0 288.49 0.00 0.00 79 1013.9
20260510000920 24 10 4.8 16.1 288.49 0.00 0.00 78 1013.8
20260510000420 24 332 4.8 9.7 288.49 0.00 0.00 78 1013.9
20260509235920 24 326 4.8 11.3 288.49 0.00 0.00 78 1013.7
20260509235420 24 321 3.2 8.0 288.49 0.00 0.00 78 1013.8
20260509234920 24 332 4.8 9.7 288.49 0.00 0.00 78 1013.8
20260509234420 24 3 4.8 9.7 288.49 0.00 0.00 77 1013.7
20260509233920 24 13 4.8 11.3 288.49 0.00 0.00 77 1013.7
20260509233420 24 309 3.2 6.4 288.49 0.00 0.00 77 1013.5
20260509232920 24 350 4.8 12.9 288.49 0.00 0.00 77 1013.6
20260509232420 24 347 4.8 14.5 288.49 0.00 0.00 77 1013.7
20260509231921 25 335 4.8 14.5 288.49 0.00 0.00 76 1013.8
20260509231420 25 15 4.8 16.1 288.49 0.00 0.00 76 1013.9
20260509230920 25 340 4.8 16.1 288.49 0.00 0.00 76 1013.8
20260509230420 25 328 4.8 14.5 288.49 0.00 0.00 77 1013.8
20260509225920 25 304 3.2 9.7 288.49 0.00 0.00 77 1013.9
20260509225421 25 335 3.2 9.7 288.49 0.00 0.00 77 1013.8
20260509224920 25 335 4.8 14.5 288.49 0.00 0.00 76 1013.7
20260509224420 25 345 6.4 19.3 288.49 0.00 0.00 76 1013.6
20260509223920 26 322 6.4 16.1 288.49 0.00 0.00 75 1013.6
20260509222921 27 328 6.4 16.1 288.49 0.00 0.00 70 1013.6
20260509222420 27 3 4.8 17.7 288.49 0.00 0.00 66 1013.4
20260509221920 27 338 3.2 14.5 288.49 0.00 0.00 64 1013.2
20260509221420 28 322 1.6 4.8 288.49 0.00 0.00 64 1013.1
20260509220920 28 329 1.6 8.0 288.49 0.00 0.00 64 1013.1
20260509220420 28 323 3.2 16.1 288.49 0.00 0.00 63 1013.1
20260509215920 28 335 1.6 8.0 288.49 0.00 0.00 62 1013.0
20260509215420 28 350 1.6 4.8 288.49 0.00 0.00 62 1013.0
20260509214920 28 328 4.8 19.3 288.49 0.00 0.00 62 1013.0
20260509214420 28 339 3.2 11.3 288.49 0.00 0.00 62 1012.9
20260509213920 28 319 1.6 6.4 288.49 0.00 0.00 62 1012.8
20260509213420 28 318 1.6 11.3 288.49 0.00 0.00 62 1012.7
20260509212920 28 333 1.6 8.0 288.49 0.00 0.00 62 1012.7
20260509212420 28 323 1.6 8.0 288.49 0.00 0.00 63 1012.6
20260509211921 28 328 6.4 16.1 288.49 0.00 0.00 62 1012.6
20260509211420 28 353 3.2 9.7 288.49 0.00 0.00 62 1012.5
20260509210920 28 329 6.4 16.1 288.49 0.00 0.00 62 1012.4
20260509210422 28 336 1.6 12.9 288.49 0.00 0.00 62 1012.4
20260509205920 28 330 1.6 8.0 288.49 0.00 0.00 62 1012.4
20260509205420 28 353 3.2 12.9 288.49 0.00 0.00 60 1012.4
20260509204920 29 312 3.2 9.7 288.49 0.00 0.00 60 1012.3
20260509204420 29 180 3.2 9.7 288.49 0.00 0.00 59 1012.4
20260509203920 29 318 3.2 9.7 288.49 0.00 0.00 60 1012.5
20260509203420 29 350 3.2 6.4 288.49 0.00 0.00 61 1012.4
20260509202921 29 326 4.8 16.1 288.49 0.00 0.00 60 1012.4
20260509202421 29 316 3.2 8.0 288.49 0.00 0.00 60 1012.4
20260509201921 29 214 3.2 8.0 288.49 0.00 0.00 60 1012.4
20260509201420 29 201 3.2 14.5 288.49 0.00 0.00 60 1012.4
20260509200920 29 221 3.2 4.8 288.49 0.00 0.00 59 1012.4
20260509200420 29 235 3.2 8.0 288.49 0.00 0.00 57 1012.5
20260509195920 29 214 1.6 8.0 288.49 0.00 0.00 56 1012.5
20260509195420 30 219 1.6 9.7 288.49 0.00 0.00 56 1012.4
20260509194920 30 231 1.6 6.4 288.49 0.00 0.00 55 1012.5
20260509194420 30 198 3.2 11.3 288.49 0.00 0.00 53 1012.5
20260509193920 30 218 3.2 12.9 288.49 0.00 0.00 53 1012.4
20260509193421 30 253 3.2 6.4 288.49 0.00 0.00 53 1012.3
20260509192921 30 205 4.8 9.7 288.49 0.00 0.00 53 1012.3
20260509192420 30 228 4.8 14.5 288.49 0.00 0.00 53 1012.4
20260509191921 30 284 3.2 9.7 288.49 0.00 0.00 54 1012.6
20260509191420 30 228 4.8 11.3 288.49 0.00 0.00 54 1012.8
20260509190921 30 221 3.2 16.1 288.49 0.00 0.00 57 1012.8
20260509190420 30 245 3.2 11.3 288.49 0.00 0.00 56 1012.9
20260509185920 30 221 3.2 9.7 288.49 0.00 0.00 57 1012.9
20260509185421 30 225 3.2 8.0 288.49 0.00 0.00 56 1012.8
20260509184920 30 212 3.2 9.7 288.49 0.00 0.00 55 1012.8
20260509184420 30 250 3.2 11.3 288.49 0.00 0.00 55 1012.7
20260509183920 30 246 1.6 6.4 288.49 0.00 0.00 54 1012.9
20260509183420 30 226 6.4 12.9 288.49 0.00 0.00 53 1012.9
20260509182920 30 242 4.8 12.9 288.49 0.00 0.00 53 1012.8
20260509182420 30 198 6.4 14.5 288.49 0.00 0.00 52 1012.9
20260509181920 30 187 4.8 14.5 288.49 0.00 0.00 52 1012.9
20260509181421 30 242 4.8 11.3 288.49 0.00 0.00 51 1012.9
20260509180921 30 226 4.8 9.7 288.49 0.00 0.00 54 1012.9
20260509180420 29 347 3.2 9.7 288.49 0.00 0.00 58 1013.0
20260509175921 28 205 4.8 11.3 288.49 0.00 0.00 61 1013.1
20260509175421 28 204 3.2 4.8 288.49 0.00 0.00 66 1013.1
20260509174920 28 222 3.2 6.4 288.49 0.00 0.00 67 1013.2
20260509174420 28 221 4.8 8.0 288.49 0.00 0.00 66 1013.2
20260509173920 29 218 9.7 17.7 288.49 0.00 0.00 64 1013.3
20260509173420 30 236 4.8 16.1 288.49 0.00 0.00 62 1013.4
20260509172920 30 195 3.2 9.7 288.49 0.00 0.00 59 1013.4
20260509172424 31 269 1.6 6.4 288.49 0.00 0.00 56 1013.4